Location: Sulku
(62.2667°N, 25.8167°E)
Time: 21:38:53
(UTC+00:00)

Daily predictions for brighter satellites

Satellite Brightness Start Highest point End
(mag) Time Altitude Azimuth Time Altitude Azimuth Time Altitude Azimuth
ATLAS 3B R/B 2.8 16:40:16 10° WNW 16:47:01 82° SSW 16:54:02 10° ESE
NOSS 2-2 (D) 4.5 16:46:34 10° S 16:49:35 24° SE 16:53:05 10° ENE
Okean 1 Rocket 4.4 16:46:34 10° SE 16:49:52 21° E 16:53:11 10° NE
Sich 1 Rocket 3.8 16:45:56 10° S 16:50:22 55° E 16:54:53 10° NNE
ATLAS 2AS CENTAUR R/B 4.2 16:46:16 10° SE 16:50:52 17° ESE 16:55:25 10° ENE
Cosmos 2227 4.2 16:45:23 10° SSW 16:51:04 69° SE 16:56:45 10° NE
Iridium 4 Rocket 3.9 16:47:16 10° S 16:52:41 84° W 16:58:33 10° N
CSL-04 Debris 4.4 16:47:20 10° SSE 16:52:44 79° WSW 16:58:11 10° NNW
Resurs 01 Rocket 2.8 16:49:18 10° ESE 16:53:01 27° NE 16:56:45 10° N
Cosmos 1025 Rocket 3.2 16:49:04 10° NNW 16:53:30 86° WSW 16:57:54 10° SSE
CSL-04 Rocket 3.9 16:49:18 10° SSE 16:54:48 80° WSW 17:00:25 10° NNW
Cosmos 1975 3.0 16:51:11 10° SSW 16:55:16 83° WNW 16:59:22 10° NNE
Cosmos 2227 Rocket 3.1 16:51:24 10° WSW 16:56:55 50° NNW 17:02:27 10° NE
ERS-2 3.8 16:53:47 10° N 16:57:13 39° WNW 17:00:39 10° SW
SKYMED 2 3.6 16:52:52 10° NNE 16:57:16 83° ESE 17:01:38 10° SSW
Cosmos 1937 Rocket 3.5 16:52:24 10° SSW 16:57:36 68° ESE 17:02:46 10° NE
Okean 2 Rocket 3.3 16:56:24 10° SSE 17:00:42 48° E 17:05:00 10° NNE
YAOGAN 1 3.5 16:57:30 10° S 17:01:45 54° WSW 17:06:02 10° NNW
Cosmos 1536 Rocket 3.6 16:58:31 10° NNW 17:03:00 90° WNW 17:07:30 10° SSE
SPOT 3 Rocket 4.1 17:00:46 10° SE 17:05:35 42° NE 17:10:28 10° NNW
CZ-4B R/B 3.2 17:02:24 10° N 17:05:38 38° WNW 17:08:53 10° SW
NOSS 3-1 (C) 3.7 17:00:33 10° WSW 17:06:43 86° NNW 17:14:11 10° ENE
Cosmos 2026 Rocket 4.2 17:01:58 10° NNW 17:08:15 56° ENE 17:14:32 10° SE
Cosmos 1092 Rocket 4.0 17:02:20 10° NNW 17:08:28 65° ENE 17:14:38 10° SSE
ARIANE 5 R/B 3.9 17:05:09 10° ESE 17:08:38 24° NE 17:12:08 10° N
Cosmos 1892 Rocket 4.2 17:05:35 10° N 17:09:38 36° ENE 17:13:41 10° SE
Cosmos 1125 Rocket 4.3 17:05:43 10° SSE 17:10:17 30° ESE 17:14:52 10° NE
H-2A R/B 4.4 17:08:15 10° N 17:12:09 29° NW 17:16:00 10° WSW
Cosmos 1464 Rocket 4.0 17:08:25 10° S 17:14:30 66° E 17:20:42 10° NNE
ADEOS Rocket 3.9 17:09:22 10° NNE 17:14:43 48° WNW 17:19:58 10° SW
Resurs 1-3 4.0 17:12:17 10° SE 17:16:28 44° ENE 17:20:40 10° N
Cosmos 2150 Rocket 4.5 17:11:46 10° S 17:16:52 42° ESE 17:22:00 10° NE
Cosmos 1674 2.7 17:13:57 10° NNW 17:17:50 89° W 17:21:42 10° SSE
CZ-2C R/B 4.0 17:12:24 10° S 17:17:51 59° W 17:23:34 10° NNW
SJ-6B 2.8 17:14:35 10° SSE 17:18:19 63° ENE 17:22:09 10° NNW
NOSS 2-3 (E) 4.2 17:13:30 10° WSW 17:18:23 89° NNW 17:24:44 10° ENE
Cosmos 2219 4.4 17:13:56 10° W 17:19:17 41° NNW 17:24:42 10° NE
MOS 1 Rocket 3.4 17:15:40 10° NNE 17:20:00 46° E 17:24:10 10° S
PSLV R/B 4.3 17:16:11 10° NNE 17:20:22 71° WNW 17:24:33 10° SSW
CZ-4 R/B 3.3 17:16:47 10° SSW 17:20:38 34° W 17:24:26 10° NNW
Cosmos 2084 3.6 17:17:20 10° W 17:21:49 83° N 17:25:57 12° E
Cosmos 1461 3.3 17:17:43 10° WNW 17:22:28 74° NNE 17:26:46 13° ESE
Cosmos 1782 Rocket 4.1 17:18:19 10° SSW 17:22:45 65° WNW 17:27:15 10° NNE
CZ-2C R/B 3.3 17:22:36 10° NNE 17:27:42 36° E 17:32:49 10° SSE
Cosmos 990 Rocket 4.5 17:27:27 10° SW 17:32:35 65° NW 17:37:45 10° NE
ARGOS 3.6 17:27:31 10° S 17:32:52 67° WSW 17:38:17 10° NNW
DMSP B5D1-3 4.5 17:28:37 10° NNE 17:33:45 73° ESE 17:38:51 10° SSW
NOSS 2-2 (C) 3.8 17:30:29 10° SSW 17:33:59 41° SE 17:38:14 10° ENE
Cosmos 2082 Rocket 2.2 17:28:44 10° NW 17:34:24 75° NE 17:39:26 13° SE
Uosat 12 SS-18 rocket 4.2 17:30:27 10° WNW 17:34:46 71° NNE 17:38:31 15° E
FREGAT/IRIS 2.1 17:34:02 10° SSE 17:36:39 83° ENE 17:39:17 10° NNW
MOS 1 4.4 17:33:19 10° SSE 17:39:03 88° WSW 17:44:49 10° NNW
Cosmos 1891 Rocket 4.4 17:34:39 10° SSW 17:40:44 90° S 17:46:50 10° NNE
USA 245 4.1 17:40:52 14° ENE 17:41:00 14° NE 17:42:19 10° NNE
Lacrosse 5 rocket 2.2 17:37:50 10° WSW 17:41:56 41° S 17:45:05 17° ESE
Cosmos 1340 Rocket 3.9 17:39:40 11° SE 17:42:41 25° E 17:46:01 10° NE
Cosmos 2151 Rocket 3.5 17:38:50 10° S 17:43:19 76° ESE 17:47:52 10° NNE
Cosmos 2297 Rocket 3.5 17:38:08 10° W 17:43:26 39° NNW 17:48:46 10° NE
Cosmos 1733 3.8 17:41:25 10° SSE 17:44:56 35° E 17:48:27 10° NNE
NOSS 2-3 (D) 4.2 17:40:03 10° W 17:45:00 84° N 17:51:26 10° E
COSMO-SKYMED 1 3.7 17:41:07 10° NNE 17:45:19 48° WNW 17:49:30 10° SW
Spot 2 Rocket 4.1 17:45:02 16° ESE 17:48:36 39° NE 17:53:17 10° NNW
Meteor 1-15 Rocket 4.3 17:43:27 10° S 17:49:03 62° E 17:54:49 10° NNE
USA 116 3.8 17:52:18 10° NNE 17:55:44 70° WNW 17:59:33 10° SSW
Ariane Rocket 3.4 17:50:55 10° S 17:55:59 65° WSW 18:01:05 10° NNW
NOSS 8 (E) 4.1 17:53:06 10° WSW 17:56:07 81° SSE 17:58:34 17° ENE
Cosmos 1805 3.3 17:52:39 10° S 17:56:29 56° E 18:00:22 10° NNE
H-2A R/B 3.5 17:52:32 10° SSW 17:57:17 39° W 18:02:12 10° NNW
NOSS 8 (H) 4.2 17:54:27 10° WSW 17:57:28 67° SSE 17:59:50 18° ENE
Cosmos 909 Rocket 4.2 17:51:00 10° WNW 17:57:57 74° SW 18:03:01 16° SE
Cosmos 1140 Rocket 4.2 17:53:05 10° NW 17:57:59 41° NE 18:01:18 19° E
SL-08 RB Rocket 4.5 17:53:37 10° S 17:58:05 54° W 18:02:33 10° NNW
OBJECT-B 0.7 17:55:36 13° SSE 17:58:27 88° E 18:01:45 10° NNW
COSMOS 2406 3.8 17:54:27 10° NW 18:00:00 56° WSW 18:05:32 10° SSE
SJ 16-02 3.2 17:56:30 10° W 18:00:26 31° NW 18:04:24 10° NNE
Okean 1-7 Rocket 3.7 17:56:08 10° NNW 18:00:43 66° ENE 18:04:23 16° SSE
Cosmos 1626 Rocket 4.1 17:56:42 10° N 18:00:56 41° ENE 18:03:25 22° ESE
Exosat Rocket 3.8 17:57:46 10° S 18:02:33 44° ESE 18:07:30 10° NE
Cosmos 407 Rocket 4.0 17:57:50 10° NW 18:02:49 47° NE 18:06:03 21° ESE
Cosmos 1626 2.4 17:59:43 10° NNW 18:03:26 69° WSW 18:07:07 10° S
Cosmos 2263 Rocket 2.6 17:58:18 10° WSW 18:03:52 65° NW 18:09:30 10° NE
Terra 3.1 18:03:57 18° E 18:06:18 26° NE 18:10:15 10° N
MetOp-A 4.5 18:01:03 10° S 18:06:24 68° WSW 18:11:47 10° NNW
USA 229 DEB 3.8 18:00:58 10° W 18:07:51 81° N 18:14:14 15° E
USA 229 3.8 18:01:04 10° W 18:07:56 81° N 18:14:20 14° E
Cosmos 1844 Rocket 2.6 18:02:42 10° SSW 18:08:12 63° SE 18:13:46 10° NE
USA 290 3.0 18:06:27 10° NNW 18:09:31 38° NE 18:10:37 28° E
Meteor 2-5 Rocket 4.3 18:03:59 10° NNW 18:09:32 61° W 18:15:11 10° S
Cosmos 372 Rocket 4.1 18:04:46 10° SW 18:10:01 80° NW 18:15:16 10° NE
SPOT 1/Viking Rocket 3.9 18:08:06 21° ESE 18:11:16 48° ENE 18:16:14 10° NNW
NOSS 2-3 (C) 4.3 18:06:26 10° W 18:11:30 80° N 18:17:06 15° E
Cosmos 2266 Rocket 4.1 18:05:56 10° NNW 18:11:53 54° ENE 18:15:59 20° SE
Cosmos 1455 Rocket 3.8 18:10:13 23° SE 18:12:01 32° E 18:15:55 10° NNE
Meteor 1-24 Rocket 4.0 18:06:43 10° NNW 18:12:12 69° WSW 18:17:52 10° S
Cosmos 2278 Rocket 3.1 18:10:00 18° SE 18:12:40 25° ESE 18:17:10 10° NE
ATLAS CENTAUR R/B 1.4 18:09:16 10° WNW 18:12:58 59° N 18:15:07 22° ENE
Lacrosse 4 Rocket 1.9 18:10:01 10° NW 18:13:59 53° SW 18:16:33 20° SSE
Meteor 2-19 Rocket 4.4 18:08:13 10° NNW 18:14:23 77° ENE 18:19:42 14° SSE
ISS -1.6 18:12:55 10° SSW 18:14:47 14° S 18:14:49 14° S
Cosmos 1844 3.7 18:10:07 10° SSW 18:15:39 59° SE 18:21:12 10° NE
Cosmos 2034 Rocket 4.2 18:09:18 10° SSW 18:15:41 80° WNW 18:22:02 10° NNE
USA 186 3.6 18:13:07 10° SSW 18:16:06 32° W 18:19:08 10° NNW
Meteor 1-22 Rocket 4.4 18:11:21 10° S 18:17:13 58° E 18:23:13 10° NNE
NOSS 3-4 (A) 4.1 18:12:02 10° S 18:17:17 32° SE 18:22:55 10° ENE
NOSS 3-4 (C) 4.1 18:12:10 10° S 18:17:24 32° SE 18:23:02 10° ENE
NOSS 3-1 (A) 3.8 18:13:41 10° W 18:20:02 82° N 18:26:34 15° E
SL-14 R/B 3.9 18:18:34 10° NNW 18:22:25 55° W 18:26:18 10° S
Cosmos 614 Rocket 4.0 18:18:50 10° NW 18:24:03 71° NE 18:26:54 27° SE
Cosmos 1703 4.1 18:21:12 10° N 18:24:49 34° ENE 18:25:46 29° E
Cosmos 1833 Rocket 3.4 18:19:57 10° NW 18:25:26 50° WSW 18:30:11 13° SSE
Cosmos 2292 Rocket 2.8 18:22:41 10° N 18:25:37 53° ENE 18:26:07 45° ESE
Okean 1 Rocket 3.1 18:22:44 10° SSW 18:27:15 89° WNW 18:31:47 10° NNE
Resurs 01 Rocket 1.7 18:25:52 18° SSE 18:29:09 82° WSW 18:33:39 10° NNW
Cosmos 2251 Rocket 3.7 18:24:13 10° NW 18:29:36 73° WSW 18:33:15 21° SSE
NOSS 2-2 (E) 3.4 18:25:45 10° WSW 18:29:38 77° SSE 18:33:40 15° ENE
CZ-2C R/B 4.0 18:25:32 10° NNE 18:29:47 41° E 18:31:44 27° SSE
Cosmos 2298 Rocket 4.2 18:25:59 10° SW 18:31:20 79° NW 18:36:43 10° NE
OPS 8737 3.9 18:33:04 10° WNW 18:35:56 90° E 18:36:25 59° ESE
Cosmos 1726 3.4 18:37:32 25° ENE 18:37:32 25° ENE 18:39:58 10° NNE
ATLAS 3B R/B 3.6 18:31:00 10° WNW 18:37:15 41° SW 18:42:35 15° SSE
Cosmos 1470 3.0 18:37:11 39° SE 18:37:59 46° E 18:41:44 10° NNE
Cosmos 1766 3.3 18:34:14 10° SSW 18:38:11 80° WNW 18:42:12 10° NNE
NOSS 2-2 (D) 3.3 18:35:40 10° WSW 18:39:29 76° SSE 18:42:55 18° ENE
ERS-1 Rocket 3.3 18:37:39 30° ESE 18:39:51 52° ENE 18:44:46 10° NNW
ATLAS 2AS CENTAUR R/B 3.3 18:32:45 10° SSW 18:40:09 44° SE 18:47:23 10° ENE
Cosmos 2227 Rocket 3.6 18:36:55 10° WNW 18:42:06 35° N 18:47:16 10° ENE
NOSS 8 (F) 4.3 18:40:04 10° W 18:43:08 77° N 18:44:17 38° ENE
Cosmos 1634 Rocket 3.9 18:37:06 10° S 18:43:18 86° E 18:49:35 10° NNE
Aureole 1 Rocket 4.0 18:38:17 10° NW 18:44:01 47° NE 18:46:00 30° E
IGS 5A 3.4 18:42:31 34° SSE 18:44:15 81° ENE 18:48:26 10° NNW
ARIANE 5 R/B 2.5 18:42:31 30° SSE 18:44:40 90° W 18:49:03 10° NNW
SPOT 3 Rocket 4.1 18:40:10 11° S 18:44:58 56° WSW 18:50:05 10° NNW
Cosmos 1825 Rocket 4.2 18:42:18 10° N 18:46:29 39° ENE 18:47:30 34° E
Meteor 1-21 Rocket 4.2 18:41:30 10° NNW 18:47:18 86° ENE 18:50:49 25° SSE
Cosmos 1892 Rocket 4.4 18:43:29 10° NNW 18:47:41 48° W 18:51:24 13° SSW
Cosmos 1655 Rocket 4.0 18:41:56 10° NNW 18:48:15 87° WSW 18:52:53 20° S
Cosmos 1190 Rocket 4.1 18:43:17 10° NW 18:48:35 67° NE 18:50:48 35° ESE
Cosmos 1758 Rocket 4.0 18:44:18 10° N 18:48:40 47° ENE 18:49:50 38° ESE
Landsat 7 3.8 18:49:05 30° SSE 18:51:29 89° ENE 18:56:17 10° NNW
Cosmos 1125 Rocket 3.6 18:46:36 10° SW 18:51:57 81° NW 18:57:19 10° NE
Meteor 2-10 4.3 18:53:19 32° SSE 18:55:18 47° E 19:00:23 10° NNE
SPOT 5 3.2 18:54:34 35° SE 18:56:42 61° ENE 19:02:01 10° NNW
CARTOSAT-1 3.6 18:56:13 44° ESE 18:57:22 61° ENE 19:01:39 10° NNW
NOSS 3-1 (C) 3.8 18:51:22 10° WNW 18:57:55 87° NNE 19:02:40 26° ESE
Cosmos 1953 3.2 18:58:56 33° ENE 18:58:56 33° ENE 19:02:00 10° NNE
Cosmos 2084 3.6 18:56:54 10° WNW 19:01:21 66° SSW 19:02:29 47° SE
Cosmos 1461 3.6 18:56:57 10° WNW 19:01:37 55° SW 19:03:08 38° SSE
SL-27 R/B 3.5 18:58:45 10° NNW 19:02:05 34° NE 19:02:27 33° ENE
Cosmos 2285 Rocket 4.0 18:56:30 10° SW 19:02:51 86° NW 19:09:19 10° NE
Cosmos 1544 Rocket 3.5 19:04:34 49° SE 19:05:24 59° E 19:09:41 10° NNE
Meteor 1-11 4.3 19:00:55 10° NNW 19:06:29 62° ENE 19:08:27 39° SE
CZ-2C R/B 3.0 19:02:53 10° NNE 19:08:24 69° WNW 19:13:58 10° SSW
Cosmos 1328 3.8 19:04:44 10° NNW 19:08:44 63° ENE 19:09:09 58° ESE
CRYOSAT 2 4.4 19:03:58 10° N 19:08:55 83° W 19:12:04 22° SSW
NOSS 2-3 (E) 4.3 19:04:04 10° W 19:09:24 84° N 19:13:04 29° E
CZ-4C R/B 4.4 19:14:58 12° ENE 19:14:58 12° ENE 19:15:33 10° ENE
TSX-5 4.3 19:09:16 10° SSW 19:13:41 69° SE 19:19:29 10° NE
Cosmos 2098 Rocket 4.4 19:10:02 10° NNW 19:17:05 65° W 19:21:19 21° S
USA 245 4.3 19:18:26 26° NW 19:18:26 26° NW 19:19:40 10° NNW
Cosmos 2180 Rocket 4.4 19:12:35 17° S 19:17:36 81° E 19:24:01 10° NNE
H-2A R/B 3.9 19:13:32 10° NNE 19:17:14 45° E 19:17:14 45° E
Cosmos 2082 Rocket 3.2 19:13:04 10° NW 19:18:15 39° WSW 19:21:16 22° SSW
DMSP B5D2-2 4.5 19:13:01 10° NNE 19:18:18 65° WNW 19:23:32 10° SW
Cosmos 1758 3.2 19:17:38 58° S 19:18:22 82° ESE 19:22:27 10° NNE
Cosmos 1340 Rocket 3.3 19:15:11 12° SSW 19:18:52 61° WNW 19:22:54 10° NNE
SL-24 DEB 4.5 19:15:21 10° NNE 19:19:50 47° E 19:20:01 47° E
Cosmos 2279 Rocket 4.0 19:13:36 10° SSW 19:19:53 86° WNW 19:26:14 10° NNE
Lacrosse 5 rocket 2.8 19:16:48 10° W 19:20:30 26° SSW 19:20:43 26° SSW
Uosat 12 SS-18 rocket 4.4 19:18:29 10° WNW 19:22:45 55° SW 19:23:30 48° S
Meteor 2-21 4.4 19:16:31 10° NNW 19:22:46 89° WSW 19:25:34 36° SSE
Cosmos 1023 Rocket 4.4 19:18:45 10° NW 19:23:54 83° WSW 19:25:17 49° SSE
NOSS 2-2 (C) 3.5 19:20:20 10° WSW 19:24:17 85° NNW 19:26:25 33° ENE
ALOS 2 4.3 19:24:30 20° ENE 19:25:19 21° NE 19:28:35 10° N
Cosmos 1953 Rocket 3.7 19:21:22 10° N 19:25:39 53° ENE 19:25:55 52° E
Cosmos 1602 Rocket 3.9 19:22:56 10° NNW 19:27:18 63° W 19:28:36 42° SSW
Spot 2 Rocket 3.9 19:25:14 32° S 19:27:29 59° WSW 19:32:30 10° NNW
Cosmos 2297 Rocket 3.5 19:23:31 10° WNW 19:28:47 36° N 19:32:54 15° ENE
COSMOS 2455 3.9 19:31:30 28° E 19:31:30 28° E 19:34:58 10° ENE
OBJECT-B 3.7 19:29:28 10° WSW 19:31:19 14° W 19:33:11 10° NW
NOSS 2-3 (D) 4.3 19:30:37 10° WNW 19:36:02 88° N 19:38:50 37° ESE
Cosmos 1892 4.1 19:33:38 10° N 19:36:29 28° NE 19:36:29 28° NE
Cosmos 1140 Rocket 3.5 19:35:01 10° NW 19:40:10 70° WSW 19:41:18 52° S
SJ 16-02 4.1 19:37:23 10° NW 19:40:20 17° NNW 19:43:17 10° NNE
Terra 1.7 19:42:51 63° SSE 19:43:37 90° E 19:48:26 10° NNW
USA 290 3.7 19:40:56 10° NW 19:43:23 33° W 19:43:23 33° W
Cosmos 2369 Rocket 4.3 19:46:58 12° ENE 19:46:58 12° ENE 19:47:49 10° ENE
Cosmos 407 Rocket 3.8 19:39:58 10° NW 19:45:01 57° WSW 19:46:14 45° SSW
In-Cosmos 22 Rocket 4.4 19:41:08 10° NNW 19:46:35 54° ENE 19:47:31 48° E
Cosmos 2263 Rocket 3.6 19:43:30 10° W 19:48:42 37° NNW 19:53:57 10° NE
Cosmos 1455 Rocket 3.7 19:47:18 24° SW 19:49:42 53° WNW 19:54:01 10° N
SPOT 1/Viking Rocket 4.3 19:48:43 31° SSW 19:50:47 48° W 19:55:47 10° NNW
Lacrosse 4 Rocket 3.7 19:49:47 10° W 19:51:52 14° WSW 19:52:52 13° SW
ATLAS CENTAUR R/B 1.6 19:48:18 10° WNW 19:51:16 54° WNW 19:51:16 54° WNW
Cosmos 1844 Rocket 3.4 19:46:49 10° WSW 19:52:19 53° NNW 19:57:51 10° NE
Cosmos 1825 4.0 19:51:01 10° N 19:53:33 22° NE 19:53:33 22° NE
Cosmos 1954 Rocket 3.9 19:50:18 10° NW 19:55:31 78° WSW 19:56:16 64° S
Cosmos 2278 Rocket 2.0 19:51:32 16° SSW 19:56:03 78° SE 20:01:45 10° NE
Cosmos 676 Rocket 3.9 19:52:16 10° NW 19:57:31 76° WSW 19:58:16 63° S
USA 229 DEB 3.7 19:52:02 10° WNW 19:59:03 82° SSW 20:01:38 45° ESE
USA 229 3.7 19:52:08 10° WNW 19:59:09 82° SSW 20:01:44 45° ESE
Cosmos 1844 4.3 19:54:24 10° WSW 19:59:58 56° NNW 20:05:30 10° NE
Cosmos 1703 4.1 19:57:16 10° NNW 20:00:59 43° W 20:01:07 43° WSW
SL-08 R/B 4.4 19:55:05 10° NNW 20:01:29 82° ENE 20:03:07 53° SSE
Cosmos 2228 4.0 20:02:53 35° NE 20:02:53 35° NE 20:05:44 10° NNE
Cosmos 1850 Rocket 4.0 19:56:52 10° NW 20:02:05 68° NE 20:02:47 60° E
NOSS 2-3 (C) 4.4 19:56:58 10° WNW 20:02:32 84° SSW 20:04:30 49° ESE
Exosat Rocket 4.3 19:59:04 10° WSW 20:03:58 53° NW 20:09:23 10° NE
Meteor 2-16 Rocket 4.5 19:58:07 10° NNW 20:04:15 75° W 20:06:04 47° S
Cosmos 1908 4.2 20:06:48 39° NNE 20:06:48 39° NNE 20:09:20 10° NNE
Resurs 01 Rocket 4.0 20:03:26 11° SW 20:06:22 19° W 20:09:33 10° NW
NOSS 3-4 (A) 3.3 20:01:18 10° SW 20:07:24 73° SSE 20:14:08 10° ENE
NOSS 3-4 (C) 3.3 20:01:25 10° SW 20:07:31 73° SSE 20:14:15 10° ENE
NOSS 3-1 (A) 3.7 20:04:31 10° WNW 20:11:15 83° SSW 20:13:58 45° ESE
Cosmos 1726 2.9 20:12:01 49° WNW 20:12:01 49° WNW 20:15:28 10° N
Spot 4 4.0 20:12:22 57° ENE 20:12:32 58° ENE 20:17:19 10° NNW
Cosmos 1470 4.4 20:12:29 22° WSW 20:14:12 32° WNW 20:17:45 10° N
Aureole 3 4.4 20:16:21 51° E 20:16:21 51° E 20:20:55 10° NNE
ERS-1 Rocket 3.8 20:17:40 37° SW 20:18:49 42° W 20:23:39 10° NNW
NOSS 2-2 (E) 3.8 20:16:04 10° W 20:20:19 78° N 20:21:01 64° ENE
Cosmos 2058 Rocket 4.4 20:22:53 30° NE 20:22:53 30° NE 20:25:35 10° NNE
COSMOS 2487 4.1 20:19:03 10° NNW 20:21:18 32° N 20:21:18 32° N
Cosmos 1346 Rocket 4.0 20:19:07 10° N 20:22:04 35° NNE 20:22:04 35° NNE
Cosmos 1825 Rocket 4.3 20:20:12 10° NNW 20:24:27 46° W 20:24:37 46° WSW
Cosmos 2227 Rocket 3.1 20:21:59 10° NW 20:27:23 43° NNE 20:29:53 28° ENE
Aureole 1 Rocket 3.7 20:23:17 10° NW 20:28:35 52° WSW 20:28:35 52° WSW
NOSS 2-2 (D) 3.8 20:26:00 10° W 20:30:10 78° N 20:30:18 77° NNE
ATLAS 2AS CENTAUR R/B 2.9 20:22:42 10° WSW 20:30:42 82° SSE 20:38:22 10° ENE
Cosmos 1340 3.8 20:27:28 10° NNW 20:30:06 41° N 20:30:06 41° N
SL-08 ROCKET BODY 4.2 20:25:28 10° NNW 20:31:22 83° WSW 20:32:13 67° S
Cosmos 1408 4.1 20:28:28 10° N 20:30:39 32° N 20:30:39 32° N
Cosmos 1953 3.3 20:34:37 43° WNW 20:34:42 43° WNW 20:38:33 10° N
SPOT 5 4.1 20:33:48 34° SW 20:35:03 39° W 20:40:06 10° NNW
SL-27 R/B 4.2 20:33:50 10° NW 20:35:59 31° WNW 20:35:59 31° WNW
Cosmos 1833 4.2 20:32:05 10° NW 20:37:49 67° SW 20:38:11 65° SSW
Cosmos 1386 Rocket 4.4 20:34:13 10° NNW 20:40:28 84° WSW 20:41:29 65° S
Cosmos 1943 Rocket 3.2 20:42:33 31° ENE 20:42:33 31° ENE 20:45:54 10° NE
Cosmos 2151 4.1 20:36:44 10° N 20:40:09 36° NE 20:40:09 36° NE
Cosmos 2058 3.6 20:38:47 10° NNW 20:42:05 52° N 20:42:05 52° N
Cosmos 1553 Rocket 3.9 20:46:30 67° SSE 20:47:17 75° E 20:53:43 10° NNE
NOSS 3-1 (C) 4.0 20:42:03 10° WNW 20:48:50 60° SW 20:50:02 54° S
Cosmos 2219 3.8 20:44:21 10° NW 20:49:57 53° NNE 20:51:25 42° ENE
Cosmos 1745 Rocket 4.0 20:51:19 10° NNW 20:57:25 67° W 20:58:16 60° SW
CZ-4C R/B 3.0 21:00:08 42° E 21:00:08 42° E 21:04:49 10° ENE
Cosmos 1726 Rocket 4.2 21:01:58 51° N 21:01:58 51° N 21:05:17 10° NNE
ALOS 2 3.1 21:01:54 56° N 21:01:54 56° N 21:05:29 10° NNW
Cosmos 1606 Rocket 4.2 21:03:52 53° NNW 21:03:52 53° NNW 21:07:22 10° NNE
SME Rocket 3.6 21:00:42 10° NNE 21:07:01 76° WNW 21:07:13 75° W
Cosmos 1741 Rocket 4.3 21:02:13 10° NW 21:07:05 58° W 21:07:05 58° W
Cosmos 1892 4.4 21:09:12 10° NNW 21:11:27 31° NW 21:11:27 31° NW
Cosmos 2297 Rocket 2.5 21:08:08 10° NW 21:13:47 61° NE 21:14:40 54° ENE
Cosmos 1486 Rocket 4.4 21:09:09 10° NW 21:14:24 57° NE 21:14:44 56° ENE
COSMOS 2455 2.7 21:14:36 78° SW 21:15:02 87° SE 21:21:08 10° NE
NOSS 2-2 (C) 4.4 21:10:44 10° WNW 21:13:47 49° WNW 21:13:47 49° WNW
Cosmos 1371 Rocket 4.2 21:16:44 66° NE 21:16:44 66° NE 21:21:25 10° NE
Meteor 2-3 Rocket 4.0 21:11:16 10° NNW 21:16:47 55° ENE 21:17:03 55° ENE
RESURS DK-1 3.8 21:19:22 33° NNE 21:19:22 33° NNE 21:21:55 10° NE
Meteor 2-17 Rocket 4.4 21:12:30 10° NNW 21:18:40 69° ENE 21:19:08 66° E
SJ 16-02 4.0 21:17:34 10° NNW 21:20:35 18° NNE 21:23:34 10° ENE
Cosmos 1455 4.4 21:23:36 21° NE 21:23:36 21° NE 21:25:04 10° NNE
Terra 3.6 21:21:44 22° W 21:22:02 22° W 21:25:47 10° NW
Cosmos 2082 4.4 21:17:33 10° NW 21:23:06 49° NNE 21:25:00 35° ENE
Cosmos 2154 Rocket 4.4 21:18:57 10° NNW 21:25:03 51° ENE 21:25:59 47° E
Cosmos 1076 Rocket 4.5 21:21:11 10° NNW 21:24:22 45° NW 21:24:22 45° NW
Helios 1A 4.1 21:26:50 41° NNE 21:26:50 41° NNE 21:29:56 10° NNW
Cosmos 2369 Rocket 2.8 21:28:45 44° ENE 21:28:45 44° ENE 21:32:56 10° NE
Thor Agena Rocket 4.1 21:22:10 10° NNE 21:26:35 50° ENE 21:26:35 50° ENE
Meteor 2-1 Rocket 4.5 21:28:22 57° ENE 21:28:22 57° ENE 21:33:24 10° NNE
Timation 2 Rocket 3.8 21:22:08 10° NW 21:28:20 88° SW 21:28:43 80° SSE
Cosmos 2074 Rocket 4.0 21:22:25 10° NNW 21:28:45 69° ENE 21:29:19 65° ESE
Cosmos 1825 3.9 21:26:14 10° NNW 21:28:20 31° NNW 21:28:20 31° NNW
Cosmos 2056 Rocket 3.7 21:31:05 67° NE 21:31:05 67° NE 21:35:38 10° NE
Cosmos 1709 Rocket 4.0 21:25:29 10° NNW 21:31:35 66° W 21:32:01 64° WSW
Cosmos 2263 Rocket 3.5 21:28:40 10° NW 21:33:54 37° NNE 21:39:10 10° E
Cosmos 2297 3.6 21:34:32 80° WNW 21:34:40 81° NW 21:40:22 10° NE
Cosmos 1844 Rocket 4.2 21:32:08 10° WNW 21:37:16 35° N 21:42:27 10° ENE
Cosmos 2228 4.3 21:39:43 36° NW 21:39:43 36° NW 21:43:19 10° N
Cosmos 2278 Rocket 3.1 21:35:06 10° W 21:40:34 47° NNW 21:46:04 10° NE
Okean 3 Rocket 4.4 21:37:11 10° NNW 21:40:40 51° N 21:40:40 51° N
S3M 3.9 21:43:04 68° WSW 21:43:40 73° WNW 21:49:50 10° NNE
Cosmos 968 Rocket 3.6 21:40:49 10° NW 21:45:48 72° NNE 21:45:48 72° NNE
Meteor 2-15 Rocket 4.3 21:49:08 78° SW 21:49:30 82° WNW 21:55:43 10° NNE
USA 229 DEB 4.3 21:42:57 10° WNW 21:49:03 42° WSW 21:49:03 42° WSW
Cosmos 1452 Rocket 4.2 21:50:55 47° ENE 21:50:55 47° ENE 21:54:53 10° NE
USA 229 4.3 21:43:03 10° WNW 21:49:09 43° WSW 21:49:09 43° WSW
NOSS 3-4 (A) 3.6 21:52:05 10° W 21:58:25 81° N 22:05:28 10° E
NOSS 3-4 (C) 3.6 21:52:12 10° W 21:58:31 81° N 22:05:34 10° E
Cosmos 2058 Rocket 4.2 22:00:10 40° NW 22:00:10 40° NW 22:03:45 10° N
Meteor 2-10 Rocket 3.7 22:00:41 85° NNE 22:00:41 85° NNE 22:06:13 10° NNE
NOSS 3-1 (A) 4.3 21:55:15 10° WNW 22:01:22 45° WSW 22:01:22 45° WSW
Cosmos 1624 Rocket 4.2 22:02:28 67° NW 22:02:28 67° NW 22:07:38 10° NE
Resurs 1-4 Rocket 4.4 22:01:37 10° NE 22:03:40 12° ENE 22:04:48 11° E
Cosmos 1812 Rocket 4.4 22:08:13 49° N 22:08:13 49° N 22:11:32 10° NNE
SL-16 R/B 3.4 22:05:31 31° E 22:07:50 44° NE 22:13:38 10° NNW
USA 81 4.4 22:02:43 10° N 22:07:46 59° ENE 22:07:46 59° ENE
CZ-2D R/B 4.4 22:07:26 10° NE 22:09:49 13° ENE 22:10:59 12° E
Cosmos 2227 Rocket 2.2 22:06:20 10° NW 22:11:40 79° NW 22:11:40 79° NW
Cosmos 1656 Rocket 4.0 22:16:30 54° ENE 22:16:30 54° ENE 22:21:04 10° NE
Cosmos 2184 Rocket 3.9 22:09:28 10° NNW 22:15:39 74° W 22:15:45 74° WSW
Cosmos 2315 Rocket 3.9 22:16:20 74° WSW 22:16:47 78° WNW 22:23:07 10° NNE
Cosmos 2151 4.5 22:14:05 10° NNW 22:16:43 32° NW 22:16:43 32° NW
ATLAS 2AS CENTAUR R/B 3.0 22:14:02 10° W 22:22:00 81° N 22:29:31 10° E
Cosmos 1400 Rocket 4.3 22:24:33 36° NNW 22:24:33 36° NNW 22:27:23 10° NNE
SL-8 Rocket 4.4 22:17:29 10° NNW 22:23:41 55° ENE 22:24:56 48° ESE
Cosmos 1943 Rocket 2.2 22:24:03 70° WNW 22:24:16 71° NW 22:29:52 10° NE
Cosmos 1295 Rocket 4.3 22:20:36 10° NNW 22:26:58 85° ENE 22:27:23 79° SE
ATLAS 5 CENTAUR R/B 3.8 22:34:32 17° E 22:34:32 17° E 22:36:07 10° ENE
Timation 1 Rocket 4.5 22:27:20 10° NW 22:33:21 71° NE 22:34:54 50° E
Cosmos 1610 Rocket 4.3 22:27:15 10° NNW 22:33:26 78° W 22:33:36 77° WSW
Cosmos 2219 3.6 22:28:42 10° NW 22:33:19 54° WNW 22:33:19 54° WNW
Nimbus 7 Rocket 4.3 22:28:25 10° NNE 22:34:30 85° WNW 22:34:50 80° SW
Cosmos 2366 rocket 4.4 22:35:05 10° NNW 22:41:20 59° ENE 22:42:46 48° ESE
Cosmos 371 Rocket 4.0 22:42:30 49° NW 22:42:30 49° NW 22:47:10 10° NNE
Cosmos 1805 Rocket 4.5 22:41:37 10° N 22:45:05 46° NNE 22:45:05 46° NNE
CZ-4C R/B 2.4 22:45:18 57° W 22:46:43 84° N 22:53:54 10° E
Cosmos 2218 Rocket 4.3 22:41:04 10° NNW 22:47:28 65° ENE 22:48:50 52° ESE
Cosmos 332 Rocket 4.3 22:48:24 55° NW 22:48:24 55° NW 22:53:05 10° NNE
Cosmos 1354 Rocket 4.3 22:45:01 10° NW 22:49:18 58° NW 22:49:18 58° NW
Geosat 4.0 22:56:13 77° N 22:56:13 77° N 23:01:04 10° NW
RESURS DK-1 4.2 22:55:15 25° NW 22:56:31 30° N 23:00:15 10° NE
Cosmos 1455 4.2 22:58:31 25° NNW 22:58:31 25° NNW 23:00:39 10° N
Cosmos-2242 4.0 22:58:39 44° NNW 22:58:39 44° NNW 23:01:48 10° NNE
USA 234 3.6 22:51:18 10° E 22:56:08 46° SE 22:56:08 46° SE
Cosmos 2297 Rocket 2.9 22:52:22 10° NW 22:56:26 42° WNW 22:56:26 42° WNW
Meteor 2-3 Rocket 4.4 22:54:43 10° NNW 22:59:20 41° WNW 22:59:20 41° WNW
SJ 16-02 2.9 22:56:25 10° NNW 23:00:25 33° NE 23:02:27 22° E
COSMOS 2455 3.4 22:57:42 23° W 23:01:25 58° NNW 23:07:25 10° ENE
Cosmos 1959 Rocket 4.5 22:57:36 10° NNW 23:03:46 75° ENE 23:04:41 63° SE
Thor Agena Rocket 4.3 23:01:40 10° NNE 23:06:42 45° NW 23:07:10 44° WNW
Cosmos 2082 3.8 23:01:52 10° NW 23:06:50 64° WNW 23:06:50 64° WNW
Cosmos 2221 3.4 23:09:06 46° NE 23:09:06 46° NE 23:12:26 10° NNE
CZ-4C R/B 4.3 23:10:11 52° NE 23:10:11 52° NE 23:14:15 10° NNW
Cosmos 2154 Rocket 4.3 23:04:40 10° NNW 23:10:42 52° W 23:10:44 52° W
Cosmos 2369 Rocket 2.6 23:10:31 52° WNW 23:11:30 59° NW 23:17:09 10° NE
Cosmos 962 Rocket 4.4 23:11:37 10° NNW 23:17:45 66° W 23:18:00 65° WSW
Cosmos 1697 Rocket 4.3 23:17:28 21° ESE 23:18:12 21° ESE 23:22:20 10° NE
Cosmos 2263 Rocket 2.4 23:13:03 10° NW 23:18:43 67° NE 23:22:18 23° ESE
Cosmos 2263 4.5 23:19:07 56° W 23:20:03 65° NW 23:25:50 10° NE
Cosmos 2181 Rocket 4.3 23:20:19 48° SE 23:21:32 56° E 23:27:38 10° NNE
Cosmos 1844 Rocket 3.9 23:17:05 10° NW 23:22:25 41° NNE 23:27:45 10° E
Cosmos 1777 Rocket 4.0 23:18:29 10° NW 23:23:21 76° NW 23:23:21 76° NW
Cosmos 1980 Rocket 4.3 23:23:46 14° ESE 23:25:30 15° E 23:28:41 10° ENE
Cosmos 2278 Rocket 3.7 23:20:39 10° WNW 23:25:50 35° N 23:31:01 10° ENE
Meteor 1-27 4.1 23:25:48 80° SW 23:26:06 84° WNW 23:31:49 10° NNE
Sich 1 3.7 23:25:45 10° NNW 23:29:00 51° NNW 23:29:00 51° NNW
Cosmos 1869 4.3 23:32:36 43° N 23:32:36 43° N 23:35:18 10° NNE
Cosmos 1656 4.5 23:31:30 37° ESE 23:31:45 37° ESE 23:36:49 10° NE
Cosmos 1452 Rocket 4.2 23:31:14 43° WNW 23:32:03 47° NW 23:37:10 10° NE
Cosmos 2341 Rocket 4.0 23:25:51 10° NNW 23:32:06 60° W 23:32:29 59° WSW
Cosmos 405 Rocket 3.9 23:31:53 10° NNW 23:34:32 40° NNW 23:34:32 40° NNW
Cosmos 1110 Rocket 4.1 23:36:05 66° WNW 23:36:22 68° NW 23:41:41 10° NE
Cosmos 1818 4.1 23:39:49 46° SE 23:39:49 46° SE 23:44:44 10° ENE
Cosmos 1331 Rocket 4.0 23:40:09 67° WNW 23:40:23 68° NW 23:45:35 10° NE
Meteor 2-2 Rocket 4.2 23:40:40 69° S 23:41:22 81° ESE 23:47:17 10° NNE
Lacrosse 5 3.8 23:43:17 17° ESE 23:43:17 17° ESE 23:45:27 10° E
SL-08 R/B 4.5 23:39:50 23° ESE 23:42:15 40° ENE 23:46:34 10° NNW
Cosmos 1470 Rocket 4.2 23:37:56 10° N 23:42:17 51° ENE 23:42:48 48° E
Nadezhda 1 Rocket 3.9 23:41:57 59° WSW 23:42:43 64° WNW 23:48:47 10° NNE
MOZ.5/SAFIR/RUBIN 5/SL-8 4.4 23:44:49 45° NW 23:44:49 45° NW 23:48:22 10° NNW
Cosmos 1302 Rocket 3.8 23:43:59 86° S 23:44:06 88° ESE 23:49:24 10° NE
Resurs 1-4 Rocket 2.8 23:39:48 10° NNE 23:44:54 45° E 23:45:52 41° SE
PSLV R/B 4.0 23:40:45 10° NNE 23:44:49 58° NW 23:44:49 58° NW
Helios 1B rocket 2.9 23:42:54 10° NNE 23:46:22 61° NNE 23:46:22 61° NNE
COBE Rocket 3.8 23:47:29 83° SW 23:47:35 83° WSW 23:52:49 10° NNW
SL-19 R/B 4.3 23:46:59 46° SE 23:48:47 80° ENE 23:54:42 10° NNW
NOSS 3-4 (A) 3.5 23:43:03 10° WNW 23:49:34 84° SSW 23:56:53 10° ESE
NOSS 3-4 (C) 3.5 23:43:09 10° WNW 23:49:40 84° SSW 23:56:59 10° ESE
Cosmos 1937 Rocket 4.5 23:44:57 10° NW 23:49:57 46° NE 23:54:55 10° ESE
Cosmos 2227 4.1 23:45:21 10° NW 23:51:05 90° N 23:53:14 40° SE
CZ-2D R/B 2.7 23:46:05 10° NNE 23:51:16 48° E 23:52:17 43° SE
SL-16 R/B 2.4 23:50:37 62° SW 23:51:19 67° WSW 23:57:30 10° NNW
Cosmos 1842 Rocket 3.9 23:51:54 61° NNW 23:51:54 61° NNW 23:55:56 10° NNE
Meteor 1-29 4.5 23:53:16 10° NNE 23:55:21 35° NNE 23:55:21 35° NNE
